Location: Marsån
(66.4167°N, 22.2833°E)
Time: 08:45:35
(UTC+00:00)

Cosmos 2233 Rocket - Pass Details

Date: 24 February 2024
Orbit: 952 x 991 km, 82.9° (Epoch: 20 April)

Event Time Altitude Azimuth Distance (km) Brightness Sun altitude
Rises 16:13:29 0° 171° (S) 3,702 7.1 -5.6°
Reaches altitude 10° 16:16:03 10° 167° (SSE) 2,756 6.4 -5.9°
Maximum altitude 16:22:10 53° 93° (E) 1,207 4.2 -6.5°
Drops below altitude 10° 16:28:16 10° 19° (NNE) 2,758 6.1 -7.1°
Sets 16:30:50 0° 15° (NNE) 3,705 6.8 -7.4°
